SHIJIAN-25 (SJ-25)

Last updated on Wed Sep 09 2026 00:03:04 GMT+0000 (Coordinated Universal Time)

1 62485U 25002A 26250.47891994 -.00000368 00000+0 00000+0 0 9996 2 62485 5.3045 60.5997 0048645 179.6743 45.8980 1.00260342 6181
UTC large
Height (km)
Speed (km/s)
/
Latitude / Longitude
Inclination (degrees)
Orbital Period (minutes)
Azimuth
Elevation
Range (km)
Doppler Factor

Next 0 passes for location: London (51.5072 / 0.1276)

No passes found over London.
SHIJIAN-25 (SJ-25)